Wind_Speed
8 9 10 12 13 15 17 18 17 16 16 11 12 13 10 7 6 8 8 9 12 12 16 13 6 4 7 11 16 15 5 7 9 9 11 11 10 12 13 6 4 5 1 8
8 10 11 12 13 16 18 18 17 18 14 13 14 11 7 5 5 6 7 8 10 11 14 9 10 8 9 14 12 14 11 4 6 4 7 11 11 11 11 12 14 10 3 5
8 11 12 13 14 16 17 17 15 17 12 16 14 12 7 6 7 8 8 10 12 13 11 10 11 19 8 13 14 16 16 11 9 11 9 10 10 12 9 13 9 10 16 19
10 13 12 11 12 15 16 17 14 14 13 13 12 11 8 7 7 8 9 9 13 16 14 18 10 15 23 14 12 8 13 16 14 16 19 21 23 20 23 22 20 13 11 21
11 11 11 13 14 15 16 16 14 12 11 11 12 12 9 8 9 10 11 11 10 13 18 20 26 26 22 27 15 19 20 15 19 24 18 11 17 19 22 22 23 22 20 14
11 12 12 12 12 14 15 14 12 12 12 12 12 11 11 11 11 9 12 15 18 15 18 23 25 25 27 29 25 25 25 16 12 9 11 7 11 9 9 17 20 18 19 16
12 12 11 11 12 13 14 13 12 12 11 12 11 11 11 12 12 10 11 15 19 20 21 26 22 17 17 16 17 22 24 18 11 11 12 2 7 10 9 9 9 13 14 7
11 11 11 11 12 13 13 13 11 11 11 12 11 12 11 12 14 14 13 15 16 18 22 28 17 12 9 9 6 11 17 16 7 5 6 7 11 15 11 8 8 10 7 6
10 10 10 11 12 12 12 12 12 11 12 10 10 11 12 13 12 12 11 13 15 16 18 18 7 5 16 7 13 6 9 16 10 3 2 2 5 15 9 7 2 14 9 4
10 10 9 9 11 12 12 12 12 11 11 10 13 11 11 15 14 13 14 10 12 11 12 10 6 6 12 6 10 12 7 14 22 16 5 4 4 12 7 5 8 13 12 5
10 9 9 8 9 12 13 14 12 11 10 11 11 14 15 18 17 15 14 14 10 6 6 6 6 7 14 13 22 12 5 11 14 13 4 5 2 9 13 12 14 6 6 8
9 9 9 8 9 11 14 15 14 11 10 12 15 8 13 13 13 14 14 11 9 5 4 6 7 15 12 19 15 17 5 7 6 11 8 2 8 14 17 9 8 0 6 7
11 8 8 8 10 11 13 16 16 13 11 10 8 7 15 16 16 13 12 5 8 9 8 8 8 12 16 15 21 21 26 2 4 1 1 9 6 7 9 5 6 2 10 10
11 9 7 8 9 11 14 16 16 14 11 3 10 11 12 12 10 11 8 6 9 10 8 8 13 16 15 20 27 29 12 4 5 3 3 2 3 6 9 5 4 2 13 14
12 10 8 7 9 12 15 14 14 13 10 6 7 9 8 10 12 10 6 6 6 8 10 11 16 17 19 24 25 19 6 7 5 4 2 1 4 8 3 3 2 8 16 17
13 11 9 9 10 13 15 14 12 15 13 9 6 4 7 8 10 8 7 8 8 11 15 17 18 12 17 15 21 4 11 9 4 3 3 2 4 6 4 4 7 13 16 16
14 12 10 9 11 11 14 15 16 14 11 9 4 3 5 6 8 8 10 11 13 15 19 21 19 17 17 24 27 10 10 8 4 4 11 0 4 6 7 7 14 16 16 20
13 11 9 9 12 11 14 14 13 11 7 7 3 2 4 10 4 8 12 14 15 19 19 20 17 16 17 14 6 8 15 10 10 6 9 4 7 8 8 8 16 14 16 19
13 10 9 10 11 10 11 10 8 9 5 5 8 13 12 5 11 15 16 16 17 13 16 17 11 13 15 8 15 8 18 15 15 13 13 12 13 12 11 11 11 13 12 14
13 11 9 10 5 8 8 8 6 7 9 11 8 11 17 11 12 14 11 8 7 11 14 8 8 12 4 9 6 8 22 22 20 19 18 17 17 16 13 12 11 11 10 9
13 9 9 9 7 7 4 3 4 4 4 5 10 13 12 7 7 9 5 5 6 6 6 5 5 6 8 5 5 3 23 24 24 20 18 15 15 14 12 11 10 9 8 7
11 10 9 8 8 4 6 5 6 6 3 2 12 14 12 7 9 6 3 5 4 5 12 8 5 11 10 6 4 3 11 20 25 22 19 17 15 11 9 8 10 9 7 5
12 12 10 5 7 9 7 9 8 4 3 5 10 12 14 8 6 5 5 5 5 10 6 5 9 18 15 8 10 7 4 11 22 24 20 16 14 12 8 6 9 10 4 0
21 16 10 4 7 6 11 13 10 11 12 14 16 14 12 11 8 5 5 5 6 4 5 3 12 20 24 17 14 9 8 6 9 20 20 15 15 15 13 11 11 13 10 6
25 15 8 12 11 10 6 5 4 8 10 12 14 13 13 11 7 6 6 4 4 3 10 25 18 14 24 22 19 15 8 6 5 7 14 18 20 21 22 21 21 19 21 17
31 23 15 11 10 8 14 12 12 12 11 12 12 8 7 7 6 8 7 4 3 6 24 27 31 26 14 19 18 16 15 12 7 3 5 7 10 12 16 19 21 24 24 23
33 31 33 33 32 23 12 11 12 13 13 11 11 10 8 7 8 11 13 20 19 10 17 16 18 16 8 16 14 11 11 8 7 6 5 1 4 9 11 12 14 19 24 25
Wind_Direction
299 310 318 325 335 340 345 350 356 356 359 14 29 46 48 29 26 9 5 356 352 356 353 356 13 277 305 317 337 342 316 299 284 270 267 262 267 255 253 215 221 220 200 279
296 305 313 321 333 339 345 352 357 358 7 19 28 40 37 37 6 347 342 337 333 349 346 343 333 336 319 303 326 325 321 284 311 270 257 260 264 261 259 264 251 231 238 267
290 303 309 314 325 335 343 352 359 358 1 7 15 18 20 356 340 329 337 330 333 333 340 334 312 309 313 312 318 301 304 287 256 266 285 297 299 306 278 243 242 239 253 292
293 288 290 302 323 337 344 354 359 1 355 356 360 5 0 347 335 321 325 315 320 324 326 321 311 310 309 302 288 320 297 286 304 278 278 282 282 277 286 277 283 254 291 303
274 286 306 314 325 331 342 350 353 353 346 345 347 348 349 345 337 326 313 306 310 306 309 305 306 312 314 303 276 290 300 293 301 303 321 299 276 280 262 274 277 286 297 304
273 282 291 305 318 329 341 347 347 350 348 345 346 343 337 339 336 325 314 307 308 315 302 300 303 301 293 281 279 280 290 291 294 304 357 322 280 339 292 271 278 290 288 309
269 278 288 299 316 330 336 342 346 343 339 337 339 338 338 336 325 333 314 306 310 319 316 309 311 302 298 283 263 259 269 271 255 295 300 253 345 343 291 297 322 308 304 297
264 275 288 302 316 328 335 338 341 339 337 335 337 336 337 325 324 331 324 315 312 322 327 335 344 350 4 349 316 265 249 243 236 276 289 309 35 3 2 4 15 4 340 275
259 271 283 299 312 322 330 333 336 337 337 331 330 330 323 318 324 326 325 313 312 317 325 341 335 319 324 320 339 22 209 219 211 286 279 304 344 352 359 331 40 2 349 308
252 265 278 300 310 320 326 331 335 342 337 328 323 317 321 313 315 314 304 301 304 318 329 350 338 307 332 314 334 325 274 205 218 236 281 262 305 15 11 11 326 343 343 225
247 264 279 297 312 319 322 327 336 347 339 327 319 314 310 310 312 308 297 299 303 335 352 355 347 318 337 318 318 352 281 193 202 211 223 265 329 1 7 333 335 328 42 114
241 258 277 301 316 325 325 321 331 352 347 323 316 329 320 325 320 311 302 293 298 290 343 321 322 323 321 324 314 335 359 320 289 190 209 276 328 332 325 334 350 179 143 146
232 244 273 303 323 332 323 321 335 349 356 335 345 360 326 325 322 327 320 307 271 277 296 319 311 310 316 310 309 312 320 331 145 157 25 284 346 332 344 348 348 238 172 169
231 243 269 300 328 336 327 327 338 349 5 44 344 345 338 349 357 341 335 301 262 270 274 280 288 301 311 298 298 303 301 261 162 199 283 240 102 342 340 337 348 233 175 173
229 242 265 298 325 327 320 330 338 348 7 357 344 344 13 32 26 21 4 341 299 295 289 288 294 299 306 303 298 284 177 124 119 135 343 244 29 352 21 37 93 152 162 173
226 242 265 296 320 321 323 329 333 341 347 334 350 354 34 25 20 16 2 342 317 298 291 290 283 304 300 299 291 292 154 135 88 181 214 143 38 33 56 84 130 146 156 163
226 239 263 294 316 320 327 328 330 342 344 323 356 82 30 12 337 326 326 320 312 293 287 285 287 298 297 282 287 309 189 149 111 91 162 103 95 77 79 122 145 161 166 159
225 241 265 290 317 311 319 325 324 332 315 324 347 324 328 326 346 356 342 321 316 304 291 292 286 289 287 277 337 230 152 143 141 135 166 133 103 106 102 133 159 169 169 171
223 244 267 290 310 307 319 330 315 290 302 300 303 314 320 318 308 321 328 330 318 308 291 299 287 275 252 274 318 242 166 162 162 151 146 134 121 113 110 125 150 172 187 188
229 246 276 295 289 311 316 311 305 298 292 285 308 340 314 301 299 305 312 312 316 296 303 301 257 272 218 348 306 291 175 169 171 163 159 147 140 127 119 122 127 139 157 168
232 249 264 281 277 312 283 253 283 281 295 347 10 359 345 353 333 313 281 291 301 291 319 265 270 259 358 2 292 278 189 179 179 172 172 166 158 149 130 126 125 133 138 142
237 252 258 282 281 265 208 218 224 238 268 285 2 354 355 334 321 315 287 277 260 262 306 296 282 329 42 55 50 22 203 200 193 188 187 187 189 179 164 149 157 134 118 137
230 240 257 264 228 222 205 212 212 192 248 334 351 346 338 330 328 294 274 264 262 297 286 270 17 43 71 99 77 70 129 197 202 202 209 213 210 205 201 194 197 210 193 294
225 238 224 233 221 220 235 247 252 251 271 289 301 308 311 308 312 286 272 273 285 261 277 351 339 34 73 69 87 92 93 110 173 201 211 221 228 242 230 236 242 224 237 265
224 227 223 228 223 208 208 223 249 262 272 286 284 282 286 280 268 263 278 267 272 281 322 321 300 33 84 82 74 81 97 104 120 167 203 220 226 232 237 246 246 248 255 260
230 228 224 236 244 244 229 241 267 273 288 300 296 269 264 252 228 234 235 271 269 332 336 321 316 351 84 89 88 85 75 75 83 165 210 218 224 230 233 237 241 245 243 253
229 238 244 250 261 254 238 254 270 288 292 274 262 242 237 234 234 237 242 265 292 309 314 328 343 0 56 94 87 88 102 95 87 85 87 124 241 242 239 238 242 247 243 243
Height
3124 3125 3125 3125 3124 3124 3123 3121 3119 3117 3115 3116 3113 3113 3115 3116 3116 3116 3115 3114 3113 3112 3110 3108 3107 3107 3107 3105 3104 3101 3101 3098 3095 3095 3093 3092 3091 3091 3091 3092 3093 3091 3091 3087
3122 3123 3124 3124 3122 3122 3120 3119 3118 3116 3114 3113 3114 3114 3115 3116 3116 3115 3114 3114 3112 3112 3110 3109 3107 3106 3107 3105 3104 3101 3099 3096 3094 3091 3092 3090 3089 3090 3089 3089 3089 3088 3090 3084
3120 3121 3121 3122 3121 3120 3120 3119 3118 3116 3114 3114 3114 3114 3115 3115 3115 3114 3113 3112 3110 3110 3109 3107 3105 3103 3103 3103 3102 3100 3098 3093 3093 3093 3092 3091 3089 3088 3087 3085 3085 3085 3084 3080
3117 3119 3120 3120 3119 3119 3119 3117 3116 3115 3114 3113 3113 3114 3114 3114 3114 3113 3113 3111 3109 3107 3106 3103 3102 3101 3098 3100 3097 3097 3096 3092 3090 3089 3088 3087 3085 3086 3083 3082 3081 3083 3079 3077
3116 3117 3116 3117 3117 3117 3117 3117 3117 3115 3113 3112 3112 3111 3112 3112 3112 3112 3110 3109 3108 3106 3103 3102 3096 3096 3098 3094 3096 3094 3093 3089 3086 3082 3083 3081 3081 3078 3077 3077 3077 3074 3076 3077
3114 3115 3115 3115 3116 3116 3115 3115 3115 3113 3112 3110 3110 3110 3108 3109 3110 3109 3107 3106 3104 3104 3101 3097 3094 3091 3088 3088 3087 3088 3088 3087 3087 3082 3080 3078 3077 3073 3072 3073 3073 3073 3073 3074
3111 3112 3113 3114 3114 3114 3114 3113 3112 3112 3110 3109 3108 3108 3108 3107 3106 3107 3106 3103 3100 3100 3096 3092 3088 3083 3079 3078 3080 3083 3083 3086 3087 3083 3080 3079 3075 3072 3071 3071 3071 3070 3069 3069
3109 3111 3111 3111 3111 3112 3112 3111 3111 3109 3108 3108 3106 3106 3106 3105 3104 3104 3103 3101 3098 3095 3093 3088 3082 3080 3079 3078 3078 3077 3079 3083 3085 3084 3079 3077 3074 3073 3072 3070 3071 3069 3066 3066
3106 3108 3109 3109 3109 3109 3109 3109 3108 3107 3107 3106 3105 3104 3104 3104 3103 3102 3100 3098 3095 3094 3091 3090 3089 3085 3083 3079 3076 3074 3075 3080 3085 3082 3080 3077 3076 3073 3071 3070 3070 3068 3066 3066
3104 3105 3107 3108 3107 3106 3107 3107 3106 3106 3104 3104 3103 3102 3101 3101 3100 3100 3097 3096 3094 3092 3091 3090 3089 3086 3084 3081 3078 3077 3077 3077 3078 3080 3080 3076 3076 3073 3070 3071 3074 3068 3065 3064
3102 3103 3104 3105 3105 3104 3104 3103 3103 3104 3102 3101 3100 3100 3100 3098 3097 3096 3095 3095 3092 3091 3091 3090 3089 3086 3085 3081 3079 3075 3076 3075 3074 3079 3079 3077 3076 3075 3073 3073 3069 3067 3066 3065
3100 3102 3103 3103 3104 3103 3101 3100 3100 3100 3100 3099 3097 3096 3096 3096 3094 3092 3090 3091 3091 3090 3091 3091 3089 3087 3084 3082 3077 3074 3073 3072 3071 3073 3075 3074 3075 3074 3072 3070 3068 3067 3068 3068
3098 3100 3101 3101 3102 3101 3099 3097 3097 3099 3098 3096 3095 3094 3095 3093 3090 3089 3088 3088 3088 3088 3089 3089 3088 3086 3084 3080 3075 3071 3069 3067 3067 3071 3073 3071 3073 3073 3070 3068 3067 3067 3069 3070
3096 3098 3099 3100 3100 3099 3097 3095 3095 3095 3095 3095 3094 3094 3093 3090 3087 3086 3086 3086 3086 3087 3087 3086 3085 3083 3081 3077 3074 3069 3069 3067 3067 3069 3070 3070 3071 3070 3068 3067 3066 3066 3068 3071
3094 3096 3097 3098 3098 3097 3095 3094 3093 3093 3096 3094 3093 3093 3091 3088 3086 3086 3085 3085 3085 3085 3084 3083 3082 3079 3078 3072 3068 3063 3064 3065 3067 3068 3068 3069 3070 3069 3067 3066 3066 3066 3069 3072
3091 3094 3095 3097 3097 3096 3093 3093 3093 3091 3093 3093 3091 3091 3089 3088 3087 3086 3085 3085 3084 3083 3081 3080 3077 3077 3076 3071 3064 3061 3063 3064 3065 3066 3067 3069 3069 3069 3068 3067 3068 3069 3071 3075
3089 3091 3093 3094 3095 3094 3092 3093 3092 3091 3090 3091 3090 3088 3089 3088 3087 3086 3085 3084 3082 3080 3077 3074 3073 3073 3073 3067 3061 3059 3060 3063 3065 3065 3066 3069 3069 3069 3068 3070 3071 3072 3074 3077
3087 3089 3091 3092 3093 3092 3091 3090 3089 3088 3090 3088 3088 3089 3088 3087 3085 3085 3083 3080 3078 3075 3073 3070 3070 3070 3069 3062 3059 3057 3059 3061 3065 3066 3066 3068 3069 3070 3070 3072 3073 3075 3077 3079
3084 3087 3089 3090 3091 3090 3089 3089 3088 3089 3090 3087 3087 3086 3086 3085 3083 3082 3080 3077 3073 3071 3069 3067 3068 3064 3061 3059 3057 3054 3057 3060 3063 3065 3066 3067 3069 3071 3072 3073 3075 3077 3079 3081
3082 3085 3087 3087 3088 3087 3088 3087 3088 3086 3086 3085 3084 3084 3082 3082 3080 3079 3079 3075 3073 3070 3067 3064 3062 3057 3057 3056 3056 3055 3055 3057 3060 3062 3065 3068 3070 3072 3074 3076 3076 3077 3080 3082
3079 3082 3084 3085 3086 3086 3086 3086 3087 3085 3085 3084 3084 3083 3080 3079 3078 3077 3077 3075 3072 3068 3066 3063 3058 3054 3055 3054 3054 3054 3055 3057 3061 3063 3067 3070 3072 3073 3075 3078 3079 3080 3081 3083
3077 3080 3080 3083 3083 3084 3085 3084 3085 3084 3084 3084 3083 3082 3080 3079 3077 3076 3075 3073 3071 3068 3066 3062 3057 3054 3053 3052 3054 3054 3056 3058 3061 3064 3068 3070 3072 3074 3076 3079 3081 3082 3083 3084
3074 3076 3078 3079 3081 3080 3080 3080 3080 3081 3082 3083 3083 3082 3080 3079 3077 3076 3074 3072 3069 3068 3065 3059 3058 3054 3050 3050 3051 3054 3054 3055 3059 3063 3067 3070 3072 3074 3076 3078 3080 3082 3084 3085
3070 3072 3074 3077 3076 3075 3075 3077 3079 3081 3081 3081 3081 3080 3080 3078 3077 3076 3073 3071 3069 3067 3064 3059 3058 3054 3050 3049 3051 3054 3055 3055 3057 3061 3065 3068 3071 3073 3075 3077 3079 3081 3082 3084
3065 3068 3068 3069 3072 3073 3074 3075 3076 3077 3078 3079 3077 3077 3077 3076 3076 3074 3073 3070 3067 3066 3064 3059 3054 3053 3053 3053 3054 3054 3056 3057 3058 3060 3063 3065 3067 3069 3071 3073 3075 3077 3079 3081
3058 3058 3061 3065 3069 3072 3073 3074 3075 3075 3076 3076 3076 3074 3074 3073 3073 3070 3069 3068 3067 3067 3064 3061 3056 3053 3052 3054 3055 3056 3057 3058 3058 3059 3060 3061 3062 3064 3066 3067 3069 3070 3073 3075
3048 3049 3056 3060 3064 3068 3071 3071 3072 3072 3073 3073 3072 3071 3070 3069 3067 3065 3065 3064 3064 3066 3063 3060 3058 3053 3053 3051 3053 3056 3056 3057 3059 3058 3058 3059 3060 3061 3061 3062 3063 3064 3066 3069